Location: Caramacate
(10.0289°N, 66.7587°W)
Time: 20:51:50
(UTC+00:00)

Delta 168 - Pass Details

Date: 05 August 2024
Orbit: 392 x 1943 km, 25.3° (Epoch: 07 September)

Event Time Altitude Azimuth Distance (km) Brightness Sun altitude
Rises 22:58:34 0° 246° (WSW) 4,449 8.3 -3.2°
Reaches altitude 10° 23:02:07 10° 246° (WSW) 3,209 7.5 -4.0°
Maximum altitude 23:09:52 84° 335° (NNW) 902 4.0 -5.8°
Drops below altitude 10° 23:14:54 10° 63° (ENE) 2,131 5.4 -7.0°
Enters shadow 23:16:52 - 64° (ENE) 2,876 6.1 -7.5°
